Погода в Маумере

Индонезия     8°37′19″S   122°12′04″E
темп.,
°C
ветер,
м/с
пор.,
м/с
влажн.,
%
обл.,
%
осадки,
мм/ч
давл.,
гПа
погр.,
м
2 марта, вт
вт223:00+27ююз1175100 0.0 1011303
02:00+27сз1274100 0.0 1009544
05:00+27ссз227593 0.0 1009564
08:00+27ссз117464 0.0 1011495
11:00+27ссз337824 0.0 1011446
14:00+27ссз337513 0.2 1008608
17:00+28сз237141 0.1 1008692
20:00+28з237334 0.1 1010535
3 марта, ср
ср323:00+28сз127135 0.0 1011521
02:00+27з127267 0.1 1009431
05:00+27юв017187 0.4 1010298
08:00+28св117150 0.4 1011419
11:00+28ссз23715 0.1 1011499
14:00+28сз33716 0.8 1008555
17:00+28зсз34728 0.9 1008523
20:00+28зсз337453 1.5 1010446
4 марта, чт
чт423:00+28ю1174100 0.0 1011248
02:00+27ю217599 0.1 1010174
05:00+27ююз227658 0.0 1010164
08:00+27ююз017342 0.0 1011251
11:00+28с33741 0.1 1011404
14:00+28зсз34711 0.8 1009490
17:00+28зсз55745 2.3 1008508
20:00+28зсз347419 4.6 1010374
5 марта, пт
пт523:00+28ююз227434 0.1 1011209
02:00+27ю117339 0.1 1009207
05:00+27ююв217311 0.1 1009283
08:00+27вюв227736 1.0 1011191
11:00+28с227212 0.1 1011323
14:00+28сз557117 0.1 1008433
17:00+28зсз567639 0.1 1008463
20:00+28зсз457719 0.4 1010486
6 марта, сб
сб623:00+28з23750 0.3 1010335
02:00+27юз22730 0.4 1009240
05:00+27ююз227324 0.0 1009209
08:00+27ююв107228 0.0 1011259
11:00+28ссз22700 0.0 1010336
14:00+28сз56730 0.0 1008451
17:00+28сз67740 0.0 1008547
20:00+28зсз67780 0.0 1010517